Weather History for Pocatello, ID

Change the Weather History Date:

Tuesday, December 30, 2014

  Actual Average Record
Temperature  
Mean Temperature 2 °F 24 °F  
Max Temperature 10 °F 32 °F 57 °F (2011)
Min Temperature -7 °F 15 °F -17 °F (1990)
Degree Days  
Heating Degree Days 63 42  
Month to date heating degree days 939 1219  
Since 1 July heating degree days 2466 2947  
Cooling Degree Days 0 0  
Month to date cooling degree days 0 0  
Year to date cooling degree days 421 392  
Moisture  
Dew Point -6 °F    
Average Humidity 75    
Maximum Humidity 87    
Minimum Humidity 62    
Precipitation  
Precipitation 0.00 in 0.04 in 0.47 in (1965)
Month to date precipitation 0.77 1.20  
Year to date precipitation 12.65 12.09  
Snow  
Snow 0.00 in - - ()
Month to date snowfall 7.2  
Since 1 July snowfall 11.8  
Snow Depth 2.00 in    
Sea Level Pressure  
Sea Level Pressure 30.65 in    
Wind  
Wind Speed 13 mph (NE)    
Max Wind Speed 26 mph    
Max Gust Speed 32 mph    
Visibility 10 miles    
Events      
T = Trace of Precipitation, MM = Missing Value Source: NWS Daily Summary

Daily Weather History Graph

Daily Weather History Graph

Search for Another Location

Airport:

Trip Planner

Search our weather history database for the weather conditions in past years. The results will help you decide how hot, cold, wet, or windy it might be!

Date:

Astronomy

Dec. 30, 2014 Rise Set
Actual Time 8:01 AM MST 5:04 PM MST
Civil Twilight 7:28 AM MST 5:37 PM MST
Nautical Twilight 6:53 AM MST 6:12 PM MST
Astronomical Twilight 6:18 AM MST 6:47 PM MST
Moon 1:24 PM MST 2:22 AM MST
Length of Visible Light 10h 08m
Length of Day
9h 03m
Waxing Gibbous, 72% of the Moon is Illuminated
Dec 30
Waxing Gibbous
Jan 4
Full
Jan 13
Last Quarter
Jan 20
New
Jan 26
First Quarter

Hourly Weather History & Observations

Time (MST) Temp. Windchill Dew Point Humidity Pressure Visibility Wind Dir Wind Speed Gust Speed Precip Events Conditions
12:53 AM 7.0 °F -14.5 °F -0.9 °F 70% 30.46 in 10.0 mi NE 24.2 mph 32.2 mph N/A   Clear
1:53 AM 5.0 °F -15.7 °F -2.0 °F 73% 30.47 in 10.0 mi NE 20.7 mph - N/A   Clear
2:53 AM 3.9 °F -17.6 °F -2.9 °F 73% 30.51 in 10.0 mi NE 21.9 mph 28.8 mph N/A   Clear
3:53 AM 3.0 °F -18.3 °F -5.1 °F 69% 30.53 in 10.0 mi NE 20.7 mph 27.6 mph N/A   Clear
4:53 AM 1.9 °F -18.7 °F -6.0 °F 69% 30.56 in 10.0 mi NE 18.4 mph 26.5 mph N/A   Clear
5:53 AM 1.0 °F -18.7 °F -6.0 °F 72% 30.59 in 10.0 mi NE 16.1 mph 24.2 mph N/A   Clear
6:53 AM 1.0 °F -17.3 °F -7.1 °F 69% 30.61 in 10.0 mi NE 13.8 mph - N/A   Clear
7:53 AM -0.0 °F -16.3 °F -8.0 °F 69% 30.63 in 10.0 mi ENE 10.4 mph - N/A   Clear
8:53 AM -0.0 °F -18.7 °F -8.0 °F 69% 30.66 in 10.0 mi ENE 13.8 mph - N/A   Clear
9:53 AM 3.0 °F -11.5 °F -8.0 °F 60% 30.67 in 10.0 mi NE 9.2 mph - N/A   Clear
10:53 AM 3.9 °F -14.3 °F -7.1 °F 60% 30.67 in 10.0 mi NNE 15.0 mph - N/A   Clear
11:53 AM 5.0 °F -15.2 °F -6.0 °F 61% 30.67 in 10.0 mi NNE 19.6 mph - N/A   Clear
12:53 PM 7.0 °F -9.8 °F -4.0 °F 61% 30.64 in 10.0 mi NNE 13.8 mph - N/A   Clear
1:53 PM 8.1 °F -9.6 °F -2.9 °F 61% 30.64 in 10.0 mi NNE 16.1 mph - N/A   Clear
2:53 PM 9.0 °F -8.5 °F -2.9 °F 59% 30.65 in 10.0 mi NE 16.1 mph - N/A   Clear
3:53 PM 9.0 °F -5.9 °F -2.0 °F 61% 30.66 in 10.0 mi NNE 11.5 mph - N/A   Clear
4:53 PM 6.1 °F -8.7 °F -4.0 °F 63% 30.70 in 10.0 mi NE 10.4 mph - N/A   Clear
5:53 PM 3.0 °F -8.0 °F -5.1 °F 69% 30.71 in 10.0 mi NW 5.8 mph - N/A   Clear
6:53 PM 1.0 °F -8.7 °F -5.1 °F 75% 30.74 in 10.0 mi North 4.6 mph - N/A   Clear
7:53 PM -4.0 °F -14.6 °F -8.0 °F 83% 30.76 in 10.0 mi SW 4.6 mph - N/A   Clear
8:53 PM -5.1 °F - -9.9 °F 80% 30.76 in 10.0 mi Calm Calm - N/A   Clear
9:53 PM -5.1 °F -19.1 °F -9.0 °F 83% 30.77 in 10.0 mi SW 6.9 mph - N/A   Clear
10:53 PM -2.9 °F -16.5 °F -8.0 °F 79% 30.77 in 10.0 mi SSW 6.9 mph - N/A   Clear
11:53 PM -4.0 °F -19.0 °F -8.0 °F 83% 30.76 in 10.0 mi SSW 8.1 mph - N/A   Clear